Location: Addison Town Hall
(32.9525°N, 96.8158°W)
Time: 21:21:45
(UTC+00:00)

Cosmos 1140 Rocket - Pass Details

Date: 08 March 2021
Orbit: 745 x 766 km, 74.1° (Epoch: 11 April)

Event Time Altitude Azimuth Distance (km) Brightness Sun altitude
Exits shadow 12:00:46 - 227° (SW) 2,761 5.9 -10.4°
Reaches altitude 10° 12:02:10 10° 235° (SW) 2,287 5.5 -10.1°
Maximum altitude 12:06:36 28° 293° (WNW) 1,397 4.4 -9.1°
Drops below altitude 10° 12:11:02 10° 352° (N) 2,286 5.9 -8.2°
Sets 12:13:43 0° 4° (N) 3,211 6.8 -7.6°
